Location: Moscow
(55.7500°N, 37.5830°E)
Time: 01:41:59
(UTC+03:00)

ISS - Visible Passes

Search period start: 28 October 2021 00:00
Search period end: 07 November 2021 00:00
Orbit: 417 x 423 km, 51.6° (Epoch: 27 October)

Date Brightness Start Highest point End Pass type
(mag) Time Alt. Az. Time Alt. Az. Time Alt. Az.
28 Oct -1.9 05:02:41 22° S 05:03:11 22° SSE 05:05:53 10° ESE visible
28 Oct -2.7 06:36:20 10° WSW 06:39:31 40° S 06:42:43 10° ESE visible
29 Oct -0.9 04:17:29 14° ESE 04:17:29 14° ESE 04:18:27 10° ESE visible
29 Oct -2.6 05:50:28 20° SW 05:52:21 37° S 05:55:30 10° ESE visible
30 Oct -2.5 05:05:11 33° SSE 05:05:11 33° SSE 05:08:16 10° E visible
30 Oct -2.8 06:38:26 10° WSW 06:41:38 40° S 06:44:49 10° ESE visible
31 Oct -1.0 04:19:53 17° ESE 04:19:53 17° ESE 04:20:58 10° E visible
31 Oct -2.9 05:52:52 24° SW 05:54:27 41° S 05:57:39 10° ESE visible
01 Nov -2.8 05:07:32 39° SSE 05:07:32 39° SSE 05:10:26 10° ESE visible
01 Nov -2.5 06:40:38 10° W 06:43:41 32° SSW 06:46:44 10° SE visible
02 Nov -1.0 04:22:11 17° ESE 04:22:11 17° ESE 04:23:12 10° ESE visible
02 Nov -2.8 05:55:10 25° WSW 05:56:30 37° S 05:59:39 10° ESE visible
03 Nov -2.7 05:09:49 37° SSE 05:09:49 37° SSE 05:12:29 10° ESE visible
03 Nov -2.0 06:42:56 10° WSW 06:45:38 22° SSW 06:48:18 10° SSE visible
04 Nov -0.9 04:24:29 16° ESE 04:24:29 16° ESE 04:25:17 10° ESE visible
04 Nov -2.4 05:57:28 23° SW 05:58:29 27° SSW 06:01:23 10° SE visible
05 Nov -2.2 05:12:10 28° SSE 05:12:10 28° SSE 05:14:21 10° SE visible
05 Nov -1.4 06:45:46 10° WSW 06:47:25 13° SW 06:49:04 10° S visible
06 Nov -0.7 04:26:54 12° SE 04:26:54 12° SE 04:27:14 10° ESE visible
06 Nov -1.9 05:59:53 17° SW 06:00:19 17° SSW 06:02:37 10° SSE visible
